Regional Weather Roundup
Issued by NWS

Home | Current Version | Previous Version | Text Only | Print | Product List | Glossary On
Versions: 1 2 3 4 5 6 7 8 9 10 11 12 13 14 15 16 17 18 19 20 21 22 23 24 25 26 27 28 29 30 31 32 33 34 35 36 37 38 39 40 41 42 43 44 45 46 47 48 49 50
000
ASUS45 KBOU 232207
RWRCO

WEATHER ROUNDUP FOR COLORADO
NATIONAL WEATHER SERVICE DENVER/BOULDER CO
400 PM MDT MON OCT 23 2017

NOTE: "FAIR" INDICATES FEW OR NO CLOUDS BELOW 12000 FEET WITH NO
SIGNIFICANT WEATHER AND/OR OBSTRUCTIONS TO VISIBILITY.

COZ001>005-013-030-031-232300-
...NORTHWEST COLORADO...

CITY           SKY/WX    TMP DP  RH WIND       PRES   REMARKS
CRAIG          FAIR      61  17  18 NW16G22   30.49R
HAYDEN         NOT AVBL
MEEKER         FAIR      62  27  26 W9        30.48S
RABBIT EARS PA NOT AVBL
STEAMBOAT SPGS NOT AVBL
WALDEN         NOT AVBL
$$

COZ006>008-011-232300-
...WEST CENTRAL VALLEYS...

CITY           SKY/WX    TMP DP  RH WIND       PRES   REMARKS
GRAND JUNCTION FAIR      68  32  26 NW3       30.40F
MONTROSE       FAIR      65  28  24 VRB6      30.46S
EAGLE          NOT AVBL
RIFLE          FAIR      69  25  19 NW14G22   30.42S
DELTA          NOT AVBL
NUCLA          NOT AVBL
$$

COZ017>023-064>068-232300-
...SOUTHWEST COLORADO...

CITY           SKY/WX    TMP DP  RH WIND       PRES   REMARKS
DURANGO        FAIR      69  26  20 VRB6      30.37F
CORTEZ         FAIR      72  24  16 NW15      30.39F
PAGOSA SPRINGS FAIR      65  19  17 W7        30.44S
TELLURIDE      NOT AVBL
WOLF CREEK PAS NOT AVBL
$$

COZ009-010-012-014-032>034-037-058>063-232300-
...CENTRAL COLORADO...

CITY           SKY/WX    TMP DP  RH WIND       PRES   REMARKS
ASPEN          FAIR      59  24  26 N15G23    30.48S
BUENA VISTA    NOT AVBL
COPPER MTN     NOT AVBL
BERTHOUD PASS  NOT AVBL
COTTONWOOD PAS NOT AVBL
GUNNISON       NOT AVBL
KREMMLING      NOT AVBL
LEADVILLE      FAIR      48  17  29 NW20G33   30.52R
SALIDA         NOT AVBL
SUNLIGHT       NOT AVBL
WILKERSON PASS NOT AVBL
$$

COZ069>075-232300-
...SAN LUIS VALLEY/SANGRE DE CRISTO MOUNTAINS...

CITY           SKY/WX    TMP DP  RH WIND       PRES   REMARKS
ALAMOSA        FAIR      67  23  19 SW9       30.38F
DEL NORTE      NOT AVBL
LA VETA PASS   NOT AVBL
SAGUACHE       NOT AVBL
$$

COZ035-036-038>040-232300-
...NORTHERN COLORADO FRONT RANGE...

CITY           SKY/WX    TMP DP  RH WIND       PRES   REMARKS
DENVER INTL AP PTSUNNY   53  23  31 N7        30.43R
DMNS CITY PARK   N/A     54  26  33 NE2G13    30.44S
AURORA         PTSUNNY   52  24  33 NE6       30.44R
FRONT RANGE AP PTSUNNY   54  25  32 N7G16     30.44R
ERIE MUNI ARPT NOT AVBL
BOULDER MUN AP NOT AVBL
CENTENNIAL     PTSUNNY   50  23  34 E6        30.44R
BROOMFIELD     NOT AVBL
FORT COLLINS   NOT AVBL
LONGMONT       NOT AVBL
$$

COZ041-046-047-076>085-087-088-232300-
...PIKES PEAK/PALMER DIVIDE AND SOUTHERN FOOTHILLS...

CITY           SKY/WX    TMP DP  RH WIND       PRES   REMARKS
COLO. SPRINGS  NOT AVBL
A. F. ACADEMY  FAIR      50  31  47 NW3       30.43S
SCHRIEVER AFB  PTSUNNY   48  25  40 NE9       30.44R
CHEYENNE MTN   PTSUNNY   46  31  55 SE9       30.39R
ELLICOTT         N/A    N/A N/A N/A N10       30.43R
FALCON         CLOUDY    47  26  43 NE9       30.45S
FORT CARSON    CLOUDY    52  31  43 NE7       30.41S
LIMON          NOT AVBL
MONUMENT HILL  NOT AVBL
CANON CITY     SUNNY     59  34  38 E13       30.40S
WALSENBURG     NOT AVBL
TRINIDAD       NOT AVBL
$$

COZ042>045-048>051-090-091-232300-
...NORTHEAST COLORADO...

CITY           SKY/WX    TMP DP  RH WIND       PRES   REMARKS
GREELEY ARPT   NOT AVBL
AKRON          FAIR      54  17  23 N26G33    30.38S
BURLINGTON     FAIR      57  21  24 N22G39    30.36R
WRAY           NOT AVBL
YUMA           NOT AVBL
STERLING       NOT AVBL
HOLYOKE        NOT AVBL
FORT MORGAN    FAIR      57  15  19 N22G30    30.41R
$$

COZ086-089-092>099-232300-
...SOUTHEAST COLORADO...

CITY           SKY/WX    TMP DP  RH WIND       PRES   REMARKS
PUEBLO         FAIR      59  31  34 SE9       30.38S
LA JUNTA       FAIR      61  27  27 N10       30.39R
LAMAR          FAIR      63  24  22 N16       30.35S
SPRINGFIELD    NOT AVBL
$$



USA.gov is the U.S. government's official web portal to all federal, state and local government web resources and services.